Погода в Корсаковке

Россия / Приморский край     43°46′48″N   131°41′44″E
темп.,
°C
ветер,
м/с
пор.,
м/с
влажн.,
%
обл.,
%
осадки,
мм/ч
давл.,
гПа
погр.,
м
14 апреля, ср
ср1401:000сз3842100 0.0 1013275
04:00−1зюз23480 0.0 101382
07:00−1ююз2543100 0.0 1013133
10:00+5юз252498 0.0 10121417
13:00+6з6935100 0.1 10102377
16:00+9зсз4827100 0.1 10092812
19:00+8сз2630100 0.0 1010591
22:00+4ююз355050 0.0 101297
15 апреля, чт
чт1501:00+3зюз34365 0.0 101370
04:00+2ю223810 0.0 101413
07:00+1ю344590 0.0 101472
10:00+9ю58265 0.0 1013556
13:00+15ююв792196 0.0 10111298
16:00+15ю91126100 0.0 10101287
19:00+9ююв81547100 0.0 1012598
22:00+6ю10186821 0.0 1013564
16 апреля, пт
пт1601:00+6ю8197648 0.0 1013675
04:00+5ю8188990 0.0 1011714
07:00+6ююв81689100 0.0 1010928
10:00+8ююв111977100 0.0 10081203
13:00+9ю101777100 0.2 10051386
16:00+8ю10187949 0.3 10021412
19:00+8ююв81677100 0.1 10011587
22:00+6ю61086100 0.4 1001689
17 апреля, сб
сб1701:00+6ю4889100 0.1 1001313
04:00+5ююв3789100 0.2 1002233
07:00+4ю379052 0.1 1002237
10:00+9юз244714 0.1 10031301
13:00+11ю3337100 0.0 10032043
16:00+11ююз2345100 0.0 10031527
19:00+9зсз5767100 0.3 1005870
22:00+8ссз5974100 0.6 1008741
18 апреля, вс
вс1801:00+7сз5878100 0.1 1009706
04:00+7зсз5107162 0.1 1009569
07:00+6сз6127688 0.3 1010906
10:00+9ссз71062100 0.3 10111332
13:00+10с585698 0.1 10111487
16:00+13ссз584797 0.3 10101743
19:00+11ссв475877 0.0 1011805
22:00+8ююз33724 0.0 101158